Time,TemperatureF,DewpointF,PressureIn,WindDirection,WindDirectionDegrees,WindSpeedMPH,WindSpeedGustMPH,Humidity,HourlyPrecipIn,Conditions,Clouds,dailyrainin,SoftwareType,DateUTC
2013-01-21 00:11:00,13.5,2.9,29.97,NNW,337,3.2,-999.0,62,-99.99,,,0.00,Acu-Link.com,2013-01-21 05:11:00,
2013-01-21 00:36:00,13.5,2.6,29.96,West,270,2.7,-999.0,61,-99.99,,,0.00,Acu-Link.com,2013-01-21 05:36:00,
2013-01-21 01:00:00,13.1,2.2,29.94,West,270,0.0,-999.0,61,-99.99,,,0.00,Acu-Link.com,2013-01-21 06:00:00,
2013-01-21 01:51:00,13.5,3.6,29.92,WSW,247,2.2,-999.0,64,-99.99,,,0.00,Acu-Link.com,2013-01-21 06:51:00,
2013-01-21 03:52:00,13.5,6.2,29.90,SSW,202,2.2,-999.0,72,-99.99,,,0.00,Acu-Link.com,2013-01-21 08:52:00,
2013-01-21 05:06:00,13.6,6.9,29.85,South,180,2.7,-999.0,74,-99.99,,,0.00,Acu-Link.com,2013-01-21 10:06:00,
2013-01-21 06:37:00,13.8,10.1,29.83,West,270,0.0,-999.0,85,-99.99,,,0.00,Acu-Link.com,2013-01-21 11:37:00,
2013-01-21 06:53:00,14.0,10.9,29.83,West,270,2.2,-999.0,87,-99.99,,,0.00,Acu-Link.com,2013-01-21 11:53:00,
2013-01-21 07:45:00,13.8,10.9,29.83,West,270,3.7,-999.0,88,-99.99,,,0.00,Acu-Link.com,2013-01-21 12:45:00,
2013-01-21 08:05:00,12.9,9.8,29.82,West,270,4.7,-999.0,87,-99.99,,,0.00,Acu-Link.com,2013-01-21 13:05:00,
2013-01-21 08:23:00,12.4,9.3,29.82,West,270,2.2,-999.0,87,-99.99,,,0.00,Acu-Link.com,2013-01-21 13:23:00,
2013-01-21 08:43:00,12.2,8.8,29.82,West,270,1.7,-999.0,86,-99.99,,,0.00,Acu-Link.com,2013-01-21 13:43:00,
2013-01-21 09:39:00,12.7,9.1,29.82,West,270,1.7,-999.0,85,-99.99,,,0.00,Acu-Link.com,2013-01-21 14:39:00,
2013-01-21 10:19:00,15.1,6.8,29.82,WNW,292,3.7,-999.0,69,-99.99,,,0.00,Acu-Link.com,2013-01-21 15:19:00,
2013-01-21 10:34:00,14.9,6.0,29.82,WSW,247,6.8,-999.0,67,-99.99,,,0.00,Acu-Link.com,2013-01-21 15:34:00,
2013-01-21 10:50:00,14.7,5.4,29.82,NNW,337,5.8,-999.0,66,-99.99,,,0.00,Acu-Link.com,2013-01-21 15:50:00,
2013-01-21 19:25:00,5.7,-1.3,29.89,West,270,7.8,-999.0,72,-99.99,,,0.00,Acu-Link.com,2013-01-22 00:25:00,
2013-01-21 19:42:00,5.4,-2.5,29.88,NW,315,6.3,-999.0,69,-99.99,,,0.00,Acu-Link.com,2013-01-22 00:42:00,
2013-01-21 19:57:00,4.8,-3.4,29.88,WNW,292,5.8,-999.0,68,-99.99,,,0.00,Acu-Link.com,2013-01-22 00:57:00,
2013-01-21 20:12:00,4.5,-4.0,29.89,WNW,292,2.7,-999.0,67,-99.99,,,0.00,Acu-Link.com,2013-01-22 01:12:00,
2013-01-21 20:28:00,4.3,-4.5,29.89,NNE,22,2.7,-999.0,66,-99.99,,,0.00,Acu-Link.com,2013-01-22 01:28:00,
2013-01-21 20:43:00,4.1,-4.7,29.89,WNW,292,2.2,-999.0,66,-99.99,,,0.00,Acu-Link.com,2013-01-22 01:43:00,
2013-01-21 20:58:00,3.7,-5.1,29.89,NE,45,3.2,-999.0,66,-99.99,,,0.00,Acu-Link.com,2013-01-22 01:58:00,
2013-01-21 21:28:00,3.7,-4.5,29.89,WNW,292,3.7,-999.0,68,-99.99,,,0.00,Acu-Link.com,2013-01-22 02:28:00,
2013-01-21 21:43:00,3.2,-4.0,29.90,WNW,292,2.7,-999.0,71,-99.99,,,0.00,Acu-Link.com,2013-01-22 02:43:00,
2013-01-21 22:03:00,2.8,-4.4,29.90,West,270,3.2,-999.0,71,-99.99,,,0.00,Acu-Link.com,2013-01-22 03:03:00,
2013-01-21 22:18:00,2.7,-4.5,29.90,West,270,4.2,-999.0,71,-99.99,,,0.00,Acu-Link.com,2013-01-22 03:18:00,
2013-01-21 22:35:00,2.7,-4.5,29.91,NW,315,3.2,-999.0,71,-99.99,,,0.00,Acu-Link.com,2013-01-22 03:35:00,
2013-01-21 22:54:00,2.5,-4.4,29.91,West,270,2.2,-999.0,72,-99.99,,,0.00,Acu-Link.com,2013-01-22 03:54:00,
2013-01-21 23:10:00,2.5,-3.9,29.91,West,270,3.7,-999.0,74,-99.99,,,0.00,Acu-Link.com,2013-01-22 04:10:00,
2013-01-21 23:27:00,2.5,-3.6,29.91,West,270,4.2,-999.0,75,-99.99,,,0.00,Acu-Link.com,2013-01-22 04:27:00,
2013-01-21 23:44:00,2.5,-3.9,29.92,NW,315,5.8,-999.0,74,-99.99,,,0.00,Acu-Link.com,2013-01-22 04:44:00,
2013-01-21 23:59:00,2.7,-4.0,29.92,West,270,5.8,-999.0,73,-99.99,,,0.00,Acu-Link.com,2013-01-22 04:59:00,